KE9LZ Weather Reports


time (UTC)temp
C
wind
direction
speed
KPH
gust
KPH
rain 1hr
cm
rain 24hr
cm
rain mn
cm
humidity
%
barometer
mb
20260905042004 22 92 3.2 8.0 0.00 2.64 2.62 96 1018.1
20260905041004 22 81 3.2 8.0 0.00 2.64 2.62 96 1018.3
20260905040004 22 35 3.2 8.0 0.00 2.64 2.62 96 1018.2
20260905034004 22 67 3.2 4.8 0.00 2.64 2.62 96 1018.3
20260905033003 22 37 1.6 4.8 0.00 2.64 2.62 97 1018.1
20260905031004 22 96 3.2 8.0 0.00 2.67 2.62 96 1018.3
20260905024004 22 76 4.8 8.0 0.00 2.79 2.62 96 1017.8
20260905023004 22 61 3.2 8.0 0.00 2.82 2.62 95 1018.1
20260905022004 22 34 4.8 8.0 0.00 2.84 2.62 95 1018.0
20260905021004 22 81 3.2 9.7 0.00 2.84 2.62 95 1017.9
20260905020004 22 70 3.2 8.0 0.00 2.84 2.62 95 1018.0
20260905014004 22 63 3.2 8.0 0.00 2.84 2.62 95 1017.9
20260905013004 22 50 1.6 3.2 0.00 2.84 2.62 95 1017.7
20260905012004 22 65 1.6 4.8 0.00 2.84 2.62 95 1017.7
20260905011003 22 84 1.6 4.8 0.00 2.84 2.62 95 1017.6
20260905010004 22 74 1.6 3.2 0.00 2.84 2.62 94 1017.5
20260905004003 22 64 3.2 4.8 0.00 2.84 2.62 94 1017.5
20260905003003 22 73 4.8 8.0 0.00 2.84 2.62 94 1017.5
20260905000004 23 86 4.8 11.3 0.00 2.84 2.62 92 1017.4
20260904235004 23 88 3.2 8.0 0.00 2.84 2.62 92 1017.4
20260904234004 23 113 3.2 12.9 0.00 2.84 2.62 92 1017.3
20260904233004 23 77 8.0 12.9 0.00 2.84 2.62 91 1017.1
20260904232004 23 108 3.2 16.1 0.00 2.84 2.62 90 1017.2
20260904231004 23 88 3.2 11.3 0.00 2.84 2.62 89 1017.1
20260904230004 23 84 3.2 8.0 0.00 2.84 2.62 88 1017.0
20260904225003 24 89 3.2 12.9 0.00 2.84 2.62 88 1016.9
20260904223003 24 75 3.2 9.7 0.00 2.84 2.62 87 1016.4
20260904222004 25 95 4.8 11.3 0.00 2.84 2.62 88 1016.5
20260904221003 25 93 4.8 11.3 0.00 2.84 2.62 88 1016.3
20260904220004 25 105 1.6 9.7 0.00 2.84 2.62 88 1016.2
20260904215004 25 62 3.2 8.0 0.00 2.84 2.62 87 1016.3
20260904214004 25 13 4.8 11.3 0.00 2.84 2.62 88 1016.3
20260904213004 25 19 4.8 11.3 0.00 2.84 2.62 87 1015.9
20260904211003 26 23 4.8 11.3 0.00 2.84 2.62 86 1015.8
20260904210004 26 11 6.4 11.3 0.00 2.84 2.62 84 1015.8
20260904205003 26 19 3.2 11.3 0.00 2.84 2.62 83 1015.7
20260904204003 27 70 3.2 12.9 0.00 2.84 2.62 82 1015.8
20260904203004 27 46 3.2 4.8 0.00 2.84 2.62 80 1015.6
20260904202003 28 1 1.6 9.7 0.00 2.84 2.62 79 1015.8
20260904201003 28 291 1.6 4.8 0.00 2.84 2.62 77 1015.7
20260904200004 28 264 3.2 4.8 0.00 2.84 2.62 76 1015.7
20260904195004 28 338 1.6 8.0 0.00 2.84 2.62 78 1016.0
20260904192004 28 191 3.2 8.0 0.00 2.84 2.62 78 1016.2
20260904191004 27 190 4.8 9.7 0.00 2.84 2.62 78 1016.2
20260904190004 28 202 1.6 16.1 0.00 2.84 2.62 77 1016.3
20260904183003 27 210 6.4 9.7 0.00 2.84 2.62 80 1016.3
20260904182004 26 208 8.0 14.5 0.00 2.84 2.62 82 1016.5
20260904181003 26 162 4.8 11.3 0.00 2.84 2.62 81 1016.5
20260904180004 27 243 6.4 11.3 0.00 2.84 2.62 80 1016.3
20260904175004 26 240 8.0 14.5 0.00 2.84 2.62 81 1016.5
20260904173004 26 186 8.0 14.5 0.00 2.84 2.62 82 1016.6
20260904172004 25 247 3.2 12.9 0.00 2.84 2.62 83 1016.9
20260904171004 25 264 6.4 14.5 0.00 2.84 2.62 83 1016.9
20260904170003 25 271 4.8 9.7 0.00 2.84 2.62 85 1016.9
20260904164004 24 121 3.2 9.7 0.00 2.84 2.62 86 1016.8
20260904162003 23 205 1.6 9.7 0.00 2.84 2.62 88 1017.1
20260904161004 23 207 4.8 8.0 0.00 2.84 2.62 88 1016.9
20260904160003 23 200 4.8 8.0 0.00 2.84 2.62 89 1017.1
20260904155004 23 195 4.8 11.3 0.00 2.92 2.62 89 1016.9
20260904154004 22 178 6.4 12.9 0.00 3.40 2.62 92 1017.2
20260904153004 22 181 3.2 11.3 0.00 3.53 2.62 93 1017.0
20260904152004 21 191 4.8 14.5 0.00 3.53 2.62 94 1017.1
20260904151004 21 121 3.2 8.0 0.00 3.63 2.62 95 1017.2
20260904150003 21 155 4.8 11.3 0.00 3.89 2.62 96 1017.1
20260904145003 21 163 3.2 11.3 0.00 4.04 2.62 98 1017.1
20260904144004 20 185 6.4 9.7 0.00 4.04 2.62 99 1017.4
20260904143004 20 183 3.2 11.3 0.00 4.04 2.62 99 1017.2
20260904142004 20 203 3.2 9.7 0.00 4.04 2.62 99 1017.3
20260904140004 20 303 3.2 4.8 0.00 4.04 2.62 99 1016.9
20260904135003 20 280 1.6 8.0 0.00 4.04 2.62 99 1016.5
20260904134004 20 177 3.2 12.9 0.00 4.04 2.62 99 1017.0
20260904133003 20 182 4.8 19.3 0.00 4.04 2.62 99 1017.5
20260904132004 20 182 4.8 12.9 0.00 4.04 2.62 99 1017.7
20260904131004 20 177 3.2 11.3 0.00 4.04 2.62 99 1017.5
20260904130004 20 197 3.2 11.3 0.00 4.04 2.62 99 1017.6
20260904125003 20 208 4.8 20.9 0.00 4.04 2.62 99 1017.3
20260904124004 20 173 4.8 9.7 0.00 4.04 2.62 99 1017.0
20260904123004 20 149 6.4 16.1 0.00 4.04 2.62 99 1016.7
20260904122004 19 174 6.4 11.3 0.03 4.04 2.62 99 1016.6
20260904121004 20 166 8.0 14.5 0.03 4.04 2.62 99 1016.7
20260904120004 20 134 6.4 12.9 0.05 4.04 2.62 99 1017.1
20260904115004 20 171 6.4 14.5 0.18 4.04 2.62 99 1016.9
20260904114004 20 177 6.4 16.1 0.53 4.04 2.62 99 1016.3
20260904113004 20 127 6.4 11.3 0.99 4.04 2.59 99 1016.5
20260904112004 20 152 8.0 22.5 0.99 4.04 2.59 99 1017.1
20260904111004 20 169 6.4 12.9 0.99 4.01 2.59 99 1016.9
20260904110005 20 122 4.8 9.7 1.19 4.01 2.57 99 1017.0
20260904105003 20 129 3.2 11.3 1.14 3.86 2.41 99 1016.8
20260904104005 20 178 3.2 11.3 0.99 3.53 2.08 99 1017.3
20260904102004 20 202 3.2 11.3 0.74 3.05 1.60 99 1016.9
20260904101004 20 149 4.8 9.7 0.79 3.02 1.60 99 1016.2
20260904100004 20 109 1.6 4.8 0.69 2.82 1.37 99 1016.9
20260904094004 20 205 3.2 8.0 0.56 2.54 1.09 99 1017.4
20260904093004 20 313 1.6 9.7 0.43 2.34 0.89 99 1017.8
20260904091004 20 59 1.6 3.2 0.33 2.24 0.79 99 1017.0
20260904090004 20 90 3.2 4.8 0.23 2.13 0.71 99 1017.2
20260904085004 20 99 3.2 8.0 0.18 2.08 0.64 99 1016.9
20260904084004 20 75 1.6 4.8 0.10 1.98 0.56 99 1017.5
20260904083003 20 6 3.2 8.0 0.03 1.91 0.46 99 1017.4
20260904082004 20 34 3.2 4.8 0.05 1.91 0.46 99 1017.3
20260904081003 20 24 3.2 8.0 0.05 1.91 0.46 99 1016.3
20260904080004 20 52 3.2 4.8 0.10 1.91 0.46 99 1015.8
20260904075004 20 71 1.6 8.0 0.46 1.91 0.46 99 1015.5
20260904074004 20 39 3.2 4.8 0.46 1.88 0.46 99 1015.6
20260904073004 20 103 3.2 8.0 0.43 1.88 0.43 99 1017.0
20260904072004 20 12 1.6 8.0 0.43 1.85 0.43 99 1017.2
20260904071004 20 20 4.8 16.1 0.41 1.83 0.41 99 1016.9
20260904070004 20 333 8.0 16.1 0.36 1.80 0.36 99 1017.2
20260904065004 20 296 6.4 12.9 0.00 1.45 0.00 99 1017.0
20260904064005 20 320 3.2 4.8 0.00 1.45 0.00 99 1016.5
20260904063004 20 88 3.2 4.8 0.00 1.45 0.00 99 1015.8
20260904062004 20 260 1.6 4.8 0.00 1.45 0.00 99 1016.2
20260904061004 20 121 1.6 8.0 0.00 1.45 0.00 99 1016.0
20260904060005 20 77 3.2 8.0 0.00 1.45 0.00 99 1016.4
20260904054004 20 84 3.2 8.0 0.00 1.45 0.00 99 1016.2
20260904052003 20 102 3.2 9.7 0.05 1.45 0.00 99 1016.9
20260904051003 20 60 3.2 8.0 0.05 1.45 0.00 99 1017.0
20260904050004 20 83 3.2 9.7 0.05 1.45 0.00 99 1017.3
20260904045004 20 139 3.2 4.8 0.05 1.45 1.45 99 1018.0
20260904044004 20 96 3.2 8.0 0.03 1.42 1.42 99 1017.7
20260904043005 20 134 3.2 8.0 0.00 1.40 1.40 99 1019.1